Location: Hermaringen
(48.5952°N, 10.2585°E)
Time: 04:54:17
(UTC+00:00)

Transit 2A - Pass Details

Date: 21 February 2026
Orbit: 590 x 954 km, 66.7° (Epoch: 14 March)

Event Time Altitude Azimuth Distance (km) Brightness Sun altitude
Rises 20:05:31 0° 322° (NW) 3,571 10.3 -32.5°
Reaches altitude 10° 20:08:12 10° 317° (NW) 2,587 9.4 -32.9°
Enters shadow 20:13:07 47° 273° (W) 1,121 7.0 -33.6°
